[[{"header":{"parameterUnit":"m.s-1","parameterCategory":2,"la1":30.2992,"la2":30.254,"lo1":-89.0895,"lo2":-89.0443,"dy":0.0025,"dx":0.0025,"nx":19,"ny":19,"refTime":"2026-04-17T09:00:00:Z","depth":"0","parameterNumber":2,"parameterNumberName":"U-component_of_CURRENTS"},"data":[0,0,0,-0.2083,-0.2085,-0.2183,-0.2184,-0.2255,-0.2256,0,0,0,0,0,0,0,0,0,0,0,-0.2036,-0.2036,-0.2082,-0.2085,-0.2183,-0.2184,-0.2255,-0.2256,0,0,0,0,0,0,0,0,0,0,0,-0.2035,-0.2036,-0.2036,-0.2085,-0.2183,-0.2184,-0.2255,-0.2195,0,0,0,0,0,0,0,0,0,0,-0.2107,-0.2066,-0.2036,-0.2036,-0.2086,-0.2183,-0.2184,-0.2193,-0.2199,-0.2194,0,-0.22,0,-0.2232,-0.2259,-0.2259,0,0,0,-0.2089,-0.2061,-0.2093,-0.2036,-0.2086,-0.2183,-0.214,-0.2197,-0.2204,-0.2202,-0.2201,-0.2205,-0.2233,-0.2259,-0.226,-0.2332,-0.2332,0,0,-0.2083,-0.2051,-0.2088,-0.2096,-0.2099,-0.2137,-0.2143,-0.2202,-0.2198,-0.2202,-0.2207,-0.2235,-0.226,-0.226,-0.2332,-0.2332,0,0,0,-0.2065,-0.2047,-0.2079,-0.2092,-0.2117,-0.2139,-0.2147,-0.2195,-0.2207,-0.2208,-0.2236,-0.226,-0.2261,-0.2331,-0.2332,-0.222,0,0,0,-0.2062,-0.2037,-0.2076,-0.2058,-0.2115,-0.2164,-0.2139,-0.2203,-0.2211,-0.2235,-0.226,-0.2261,-0.2331,-0.2331,-0.2222,-0.2052,0,0,0,-0.2034,-0.2034,-0.2043,-0.2056,-0.2099,-0.2164,-0.218,-0.2206,-0.2227,-0.2259,-0.2261,-0.233,-0.2331,-0.2224,-0.206,-0.1958,0,0,0,-0.2002,-0.206,-0.2041,-0.2127,-0.2098,-0.222,-0.218,-0.2262,-0.2298,-0.226,-0.2331,-0.2332,-0.2224,-0.2065,-0.1963,-0.1926,-0.1896,0,0,-0.2075,-0.2067,-0.2129,-0.2117,-0.2213,-0.2207,-0.2261,-0.2277,-0.2304,-0.2307,-0.2309,-0.2221,-0.206,-0.1959,-0.1986,-0.1954,0,0,0,-0.2156,-0.2162,-0.2209,-0.2241,-0.232,-0.2248,-0.2313,-0.2308,-0.229,-0.2328,-0.2274,-0.2174,-0.2114,-0.2107,-0.2083,-0.2089,-0.2336,-0.2336,-0.2336,-0.212,-0.2181,-0.2228,-0.2267,-0.2305,-0.2295,-0.222,-0.2198,-0.2316,-0.2291,-0.2128,-0.2018,-0.2018,-0.1997,-0.2007,-0.2245,-0.2245,-0.2244,-0.2244,-0.2121,-0.2118,-0.2139,-0.2201,-0.2146,-0.2156,-0.2073,-0.2069,-0.1951,-0.2091,-0.2042,-0.2044,-0.1963,-0.1984,-0.2238,-0.2239,-0.224,-0.224,-0.2241,-0.2028,-0.2029,-0.2068,-0.206,-0.1995,-0.1985,-0.1797,-0.1761,-0.1776,-0.1669,-0.1726,-0.1728,-0.1699,-0.1717,-0.1716,-0.1715,-0.1714,-0.1713,-0.1712,-0.1893,-0.1935,-0.1894,-0.1903,-0.186,-0.1758,-0.1629,-0.1537,-0.1482,-0.151,-0.1512,-0.1665,-0.1855,-0.182,-0.1694,-0.1697,-0.17,-0.1701,-0.1703,-0.177,-0.1782,-0.1716,-0.1674,-0.1568,-0.1386,-0.1371,-0.1243,-0.1191,-0.1152,-0.1331,-0.1439,-0.1438,-0.1462,-0.1419,-0.1195,-0.1195,-0.1195,-0.1195,-0.164,-0.1656,-0.151,-0.1393,-0.1254,-0.1174,-0.0898,-0.0885,-0.1002,-0.1056,-0.1126,-0.1289,-0.131,-0.1312,-0.1339,-0.13,-0.1051,-0.1051,-0.1051,-0.1503,-0.1493,-0.1327,-0.1249,-0.1094,-0.0917,-0.0601,-0.0427,-0.0753,-0.1048,-0.1128,-0.1134,-0.1389,-0.142,-0.145,-0.1487,-0.1435,0,0]},{"header":{"parameterUnit":"m.s-1","parameterCategory":2,"la1":30.2992,"la2":30.254,"lo1":-89.0895,"lo2":-89.0443,"dy":0.0025,"dx":0.0025,"nx":19,"ny":19,"refTime":"2026-04-17T09:00:00:Z","depth":"0","parameterNumber":3,"parameterNumberName":"V-component_of_CURRENTS"},"data":[0,0,0,-0.0303,-0.0302,-0.0242,-0.0242,-0.0074,-0.0072,0,0,0,0,0,0,0,0,0,0,0,-0.0318,-0.0318,-0.0303,-0.0302,-0.0242,-0.0242,-0.0074,-0.0072,0,0,0,0,0,0,0,0,0,0,0,-0.0318,-0.0318,-0.0318,-0.0302,-0.0242,-0.0242,-0.0074,-0.0137,0,0,0,0,0,0,0,0,0,0,-0.0205,-0.0237,-0.0318,-0.0318,-0.0302,-0.0243,-0.0242,-0.0141,-0.0133,-0.0081,0,-0.0084,0,-0.0083,-0.0061,-0.006,0,0,0,-0.0281,-0.0244,-0.0234,-0.0318,-0.0302,-0.0243,-0.0263,-0.0137,-0.0128,-0.0071,-0.0081,-0.0076,-0.008,-0.006,-0.0059,0.0049,0.0049,0,0,-0.0285,-0.0293,-0.0241,-0.023,-0.0299,-0.0266,-0.0262,-0.0133,-0.0122,-0.0081,-0.0072,-0.0077,-0.0058,-0.0057,0.0049,0.0049,0,0,0,-0.0308,-0.0296,-0.029,-0.0236,-0.0237,-0.0264,-0.026,-0.0128,-0.0129,-0.0071,-0.0075,-0.0057,-0.0055,0.005,0.0049,-0.002,0,0,0,-0.0309,-0.0311,-0.0292,-0.0295,-0.0241,-0.0194,-0.0258,-0.0137,-0.0123,-0.0076,-0.0057,-0.0054,0.005,0.0049,-0.0018,-0.0065,0,0,0,-0.0318,-0.0312,-0.0311,-0.0296,-0.0281,-0.0197,-0.0189,-0.0134,-0.0126,-0.006,-0.0053,0.005,0.0049,-0.0016,-0.0061,-0.0064,0,0,0,-0.032,-0.0389,-0.0311,-0.0394,-0.0282,-0.0298,-0.019,-0.0179,-0.0137,-0.0056,0.005,0.0049,-0.0016,-0.0059,-0.0062,0.0015,0.0012,0,0,-0.0428,-0.0401,-0.046,-0.0391,-0.0458,-0.0304,-0.0299,-0.0194,-0.0112,0.0018,0.002,-0.0019,-0.0061,-0.0063,0.0002,-0.0001,0,0,0,-0.0511,-0.054,-0.0552,-0.0562,-0.0526,-0.0415,-0.0303,-0.0214,-0.0092,-0.009,-0.0004,-0.0028,-0.0027,0.0024,0.0022,0.0329,0.0048,0.0048,0.0048,-0.0609,-0.0625,-0.0693,-0.0674,-0.0639,-0.0483,-0.0388,-0.0227,-0.0149,-0.0098,-0.0073,-0.011,-0.0056,-0.0056,0.0259,-0.005,-0.005,-0.005,-0.0051,-0.0752,-0.079,-0.0753,-0.0828,-0.0692,-0.0633,-0.0405,-0.0312,-0.0169,-0.0106,-0.0101,-0.0038,-0.0063,0.0275,-0.0055,-0.0054,-0.0054,-0.0053,-0.0053,-0.0808,-0.0824,-0.0866,-0.089,-0.0822,-0.0675,-0.0552,-0.039,-0.0253,-0.0231,-0.0139,-0.0136,0.0153,-0.022,-0.022,-0.022,-0.0221,-0.0221,-0.0221,-0.0826,-0.0867,-0.0913,-0.0933,-0.0911,-0.0817,-0.0626,-0.0545,-0.036,-0.0215,-0.0213,0.0192,-0.0161,-0.0164,-0.0224,-0.0224,-0.0223,-0.0223,-0.0223,-0.0889,-0.0884,-0.0955,-0.0968,-0.0933,-0.0863,-0.0755,-0.0589,-0.0474,-0.0399,0.022,-0.0179,-0.0145,-0.0141,-0.0142,-0.0193,-0.0193,-0.0193,-0.0193,-0.0878,-0.09,-0.0937,-0.0946,-0.0925,-0.0857,-0.0798,-0.0583,-0.0056,0.0356,0.0407,0.0513,0.0498,0.0576,0.0565,0.0581,0.0715,0.0717,0.0718,-0.0865,-0.0889,-0.0888,-0.0923,-0.0906,-0.0856,-0.0798,-0.0473,0.047,0.0786,0.0822,0.0783,0.0969,0.0921,0.1066,0.1025,0.1058,0,0]}],[{"header":{"parameterUnit":"m.s-1","parameterCategory":2,"la1":30.2992,"la2":30.254,"lo1":-89.0895,"lo2":-89.0443,"dy":0.0025,"dx":0.0025,"nx":19,"ny":19,"refTime":"2026-04-17T09:00:00:Z","depth":"2","parameterNumber":2,"parameterNumberName":"U-component_of_CURRENTS"},"data":[0,0,0,-0.2011,-0.2013,-0.2108,-0.2108,-0.2172,-0.2173,0,0,0,0,0,0,0,0,0,0,0,-0.1965,-0.1966,-0.201,-0.2013,-0.2108,-0.2108,-0.2172,-0.2173,0,0,0,0,0,0,0,0,0,0,0,-0.1965,-0.1966,-0.1966,-0.2013,-0.2108,-0.2108,-0.2172,-0.2115,0,0,0,0,0,0,0,0,0,0,-0.2029,-0.1992,-0.1965,-0.1966,-0.2014,-0.2107,-0.2108,-0.2112,-0.2118,-0.2113,0,-0.2121,0,-0.2153,-0.2175,-0.2176,0,0,0,-0.2013,-0.1987,-0.2019,-0.1966,-0.2014,-0.2107,-0.2065,-0.2116,-0.2122,-0.212,-0.2123,-0.2126,-0.2154,-0.2176,-0.2176,-0.2237,-0.2238,0,0,-0.2008,-0.1979,-0.2015,-0.2023,-0.2031,-0.2062,-0.2068,-0.2121,-0.2118,-0.2123,-0.2128,-0.2155,-0.2176,-0.2176,-0.2237,-0.2237,0,0,0,-0.1992,-0.1975,-0.2006,-0.2019,-0.2044,-0.2065,-0.2071,-0.2116,-0.2128,-0.2129,-0.2156,-0.2176,-0.2177,-0.2236,-0.2237,-0.2268,0,0,0,-0.1989,-0.1967,-0.2003,-0.1987,-0.2043,-0.2089,-0.2065,-0.2124,-0.2132,-0.2155,-0.2176,-0.2177,-0.2236,-0.2237,-0.2266,-0.2304,0,0,0,-0.1963,-0.1964,-0.1974,-0.1985,-0.2029,-0.2089,-0.2104,-0.2127,-0.2147,-0.2176,-0.2177,-0.2236,-0.2237,-0.2265,-0.23,-0.2356,0,0,0,-0.1932,-0.1944,-0.1972,-0.2002,-0.2028,-0.2106,-0.2104,-0.2167,-0.2196,-0.2177,-0.2236,-0.2237,-0.2264,-0.2298,-0.2353,-0.2092,-0.2083,0,0,-0.1932,-0.1943,-0.1965,-0.1994,-0.2061,-0.2093,-0.2159,-0.2196,-0.2202,-0.2214,-0.2216,-0.2267,-0.23,-0.2355,-0.2139,-0.2128,0,0,0,-0.1958,-0.1962,-0.1992,-0.2037,-0.2104,-0.2167,-0.2205,-0.2217,-0.2252,-0.2222,-0.2275,-0.2295,-0.2329,-0.2166,-0.2158,-0.2241,-0.2241,-0.2241,-0.2241,-0.1894,-0.1953,-0.1998,-0.2071,-0.2129,-0.2217,-0.2269,-0.2291,-0.2277,-0.2297,-0.2325,-0.2398,-0.2221,-0.2213,-0.2318,-0.2318,-0.2318,-0.2318,-0.2318,-0.1892,-0.1914,-0.2005,-0.2075,-0.2165,-0.2228,-0.2315,-0.2331,-0.2398,-0.2356,-0.2387,-0.2211,-0.2205,-0.2321,-0.232,-0.232,-0.232,-0.2319,-0.2319,-0.1838,-0.1857,-0.1928,-0.2041,-0.2127,-0.2228,-0.2288,-0.2364,-0.2439,-0.2488,-0.2318,-0.2313,-0.2434,-0.2502,-0.2502,-0.2503,-0.2503,-0.2503,-0.2504,-0.1748,-0.1819,-0.1864,-0.1988,-0.2031,-0.2118,-0.2264,-0.2315,-0.2351,-0.2354,-0.2351,-0.246,-0.2454,-0.2446,-0.251,-0.2509,-0.2508,-0.2507,-0.2507,-0.1661,-0.1707,-0.1751,-0.1796,-0.1886,-0.1843,-0.2036,-0.2092,-0.2206,-0.2185,-0.2269,-0.2273,-0.2248,-0.2249,-0.2235,-0.2242,-0.2242,-0.2242,-0.2242,-0.1583,-0.1616,-0.1626,-0.1635,-0.166,-0.1697,-0.1644,-0.1731,-0.1893,-0.1885,-0.1901,-0.1766,-0.1783,-0.1727,-0.174,-0.1715,-0.1587,-0.1586,-0.1586,-0.1528,-0.1537,-0.1496,-0.1528,-0.1521,-0.1496,-0.1366,-0.1337,-0.1379,-0.1568,-0.1871,-0.2182,-0.2019,-0.2032,-0.1974,-0.1985,-0.1955,0,0]},{"header":{"parameterUnit":"m.s-1","parameterCategory":2,"la1":30.2992,"la2":30.254,"lo1":-89.0895,"lo2":-89.0443,"dy":0.0025,"dx":0.0025,"nx":19,"ny":19,"refTime":"2026-04-17T09:00:00:Z","depth":"2","parameterNumber":3,"parameterNumberName":"V-component_of_CURRENTS"},"data":[0,0,0,-0.0329,-0.0328,-0.026,-0.0259,-0.0083,-0.0081,0,0,0,0,0,0,0,0,0,0,0,-0.0347,-0.0347,-0.0329,-0.0328,-0.026,-0.0259,-0.0083,-0.0081,0,0,0,0,0,0,0,0,0,0,0,-0.0347,-0.0347,-0.0347,-0.0328,-0.026,-0.0259,-0.0083,-0.0152,0,0,0,0,0,0,0,0,0,0,-0.0228,-0.0264,-0.0347,-0.0347,-0.0328,-0.026,-0.0259,-0.0156,-0.0148,-0.0095,0,-0.0096,0,-0.0094,-0.0069,-0.0069,0,0,0,-0.0307,-0.0271,-0.0258,-0.0347,-0.0328,-0.026,-0.0285,-0.0152,-0.0142,-0.0084,-0.0094,-0.0088,-0.0091,-0.0068,-0.0067,0.0061,0.0061,0,0,-0.0311,-0.0322,-0.0265,-0.0253,-0.0322,-0.0287,-0.0283,-0.0147,-0.0137,-0.0093,-0.0084,-0.0088,-0.0067,-0.0066,0.0061,0.0061,0,0,0,-0.0336,-0.0325,-0.0316,-0.0259,-0.0259,-0.0286,-0.0281,-0.0142,-0.0142,-0.0082,-0.0086,-0.0066,-0.0064,0.0061,0.0061,-0.0026,0,0,0,-0.0337,-0.0341,-0.0318,-0.0322,-0.0263,-0.0213,-0.0279,-0.0151,-0.0136,-0.0087,-0.0066,-0.0062,0.0061,0.0061,-0.0024,-0.0057,0,0,0,-0.0348,-0.0342,-0.034,-0.0323,-0.0305,-0.0215,-0.0206,-0.0148,-0.0139,-0.0069,-0.0062,0.0061,0.0061,-0.0022,-0.0053,0.0025,0,0,0,-0.0353,-0.0381,-0.034,-0.0369,-0.0306,-0.0283,-0.0207,-0.0174,-0.0125,-0.0065,0.0061,0.0061,-0.0021,-0.0051,0.0026,0.009,0.0093,0,0,-0.0401,-0.0387,-0.0407,-0.037,-0.0384,-0.029,-0.0265,-0.0171,-0.0096,0.0026,0.0029,-0.0025,-0.0053,0.0025,0.0101,0.0103,0,0,0,-0.0431,-0.0443,-0.0439,-0.0435,-0.0396,-0.0337,-0.0242,-0.0178,-0.008,-0.0069,0.0004,-0.001,0.0042,0.0082,0.0084,0.0062,0.0062,0.0062,0.0062,-0.0498,-0.049,-0.0523,-0.0498,-0.0468,-0.0359,-0.0294,-0.018,-0.011,-0.0079,-0.0061,-0.0035,0.0004,0.0007,-0.0039,-0.0039,-0.0039,-0.004,-0.004,-0.0586,-0.0614,-0.0587,-0.0623,-0.0548,-0.0505,-0.0337,-0.0265,-0.0115,-0.0095,-0.0039,0.0012,0.0005,-0.0046,-0.0045,-0.0044,-0.0043,-0.0043,-0.0042,-0.0636,-0.0654,-0.0677,-0.0722,-0.0695,-0.0597,-0.0494,-0.0358,-0.0197,-0.0149,-0.0005,-0.0003,-0.0059,-0.0093,-0.0092,-0.0092,-0.0092,-0.0092,-0.0092,-0.0687,-0.0708,-0.0785,-0.0817,-0.0834,-0.0785,-0.0575,-0.0434,-0.0195,-0.0072,-0.007,-0.0051,-0.0049,-0.0058,-0.0089,-0.009,-0.009,-0.009,-0.009,-0.0767,-0.0785,-0.0889,-0.0937,-0.0967,-0.0892,-0.0701,-0.0349,-0.0165,-0.0016,0.0015,0.0012,0.007,0.007,0.0067,0.007,0.007,0.007,0.007,-0.0826,-0.0843,-0.0975,-0.1045,-0.1063,-0.0937,-0.0653,-0.0304,-0.0009,0.0084,0.0082,0.0066,0.0061,0.0119,0.0117,0.0115,0.0131,0.013,0.013,-0.0901,-0.0923,-0.1022,-0.1086,-0.1102,-0.0955,-0.065,-0.0221,0.0086,0.0127,0.0036,0.0085,0.0059,0.0051,0.014,0.0137,0.0134,0,0]}],[{"header":{"parameterUnit":"m.s-1","parameterCategory":2,"la1":30.2992,"la2":30.254,"lo1":-89.0895,"lo2":-89.0443,"dy":0.0025,"dx":0.0025,"nx":19,"ny":19,"refTime":"2026-04-17T09:00:00:Z","depth":"4","parameterNumber":2,"parameterNumberName":"U-component_of_CURRENTS"},"data":[0,0,0,-0.159,-0.1594,-0.1759,-0.176,-0.1861,-0.1861,0,0,0,0,0,0,0,0,0,0,0,-0.1533,-0.1534,-0.159,-0.1594,-0.1759,-0.176,-0.1861,-0.1861,0,0,0,0,0,0,0,0,0,0,0,-0.1532,-0.1533,-0.1535,-0.1595,-0.1759,-0.176,-0.186,-0.1763,0,0,0,0,0,0,0,0,0,0,-0.1616,-0.158,-0.1533,-0.1535,-0.1596,-0.1759,-0.176,-0.176,-0.1769,-0.1754,0,-0.1788,0,-0.1825,-0.1865,-0.1866,0,0,0,-0.1594,-0.1573,-0.1616,-0.1535,-0.1597,-0.1758,-0.1684,-0.1766,-0.1776,-0.1766,-0.179,-0.1795,-0.1827,-0.1866,-0.1866,-0.1944,-0.1944,0,0,-0.1585,-0.156,-0.161,-0.1623,-0.1648,-0.1679,-0.1689,-0.1773,-0.1785,-0.179,-0.1798,-0.1829,-0.1866,-0.1867,-0.1943,-0.1944,0,0,0,-0.1559,-0.1554,-0.1598,-0.1618,-0.1657,-0.1684,-0.1696,-0.1782,-0.1797,-0.1799,-0.183,-0.1867,-0.1867,-0.1943,-0.1944,-0.1969,0,0,0,-0.1553,-0.1539,-0.1594,-0.1581,-0.1656,-0.1737,-0.1702,-0.1791,-0.1803,-0.1829,-0.1867,-0.1868,-0.1943,-0.1943,-0.1968,-0.1965,0,0,0,-0.1523,-0.1536,-0.1558,-0.1579,-0.1652,-0.1737,-0.1758,-0.1795,-0.182,-0.1866,-0.1868,-0.1942,-0.1943,-0.1966,-0.1963,-0.1967,0,0,0,-0.1488,-0.1514,-0.1557,-0.1601,-0.165,-0.1742,-0.1758,-0.1839,-0.1882,-0.1867,-0.1943,-0.1943,-0.1966,-0.1962,-0.1966,-0.1714,0,0,0,-0.1493,-0.1515,-0.1539,-0.1582,-0.1657,-0.1719,-0.18,-0.1869,-0.1885,-0.1906,-0.1909,-0.1968,-0.1963,-0.1967,-0.1769,0,0,0,0,-0.1523,-0.1539,-0.157,-0.1631,-0.1707,-0.1786,-0.1862,-0.1891,-0.1949,-0.1916,-0.1979,-0.1975,-0.1976,-0.1827,-0.1948,-0.1948,-0.1948,-0.1947,-0.1947,-0.1474,-0.1529,-0.1577,-0.1655,-0.1723,-0.184,-0.1899,-0.1951,-0.1967,-0.1999,-0.2004,-0.2035,-0.188,-0.2022,-0.2022,-0.2022,-0.2022,-0.2022,-0.2022,-0.1461,-0.1479,-0.1575,-0.164,-0.174,-0.182,-0.1932,-0.1973,-0.2033,-0.2034,-0.2035,-0.1876,-0.2025,-0.2024,-0.2024,-0.2024,-0.2023,-0.2023,-0.2023,-0.1402,-0.1418,-0.1486,-0.1584,-0.1692,-0.1812,-0.1879,-0.1979,-0.2038,-0.2066,-0.1899,-0.2047,-0.2034,-0.207,-0.2071,-0.2071,-0.2071,-0.2071,-0.2071,-0.13,-0.1371,-0.1403,-0.1523,-0.1584,-0.1689,-0.185,-0.1886,-0.1981,-0.189,-0.2071,-0.2051,-0.205,-0.2036,-0.2071,-0.2071,-0.2071,-0.2071,-0.2071,-0.1201,-0.1241,-0.1274,-0.1327,-0.1452,-0.1515,-0.1699,-0.1726,-0.1743,-0.1707,-0.179,-0.1804,-0.1765,-0.1771,-0.1746,-0.1696,-0.1693,-0.1689,0,-0.1109,-0.1138,-0.1155,-0.1194,-0.1239,-0.1399,-0.1371,-0.1456,-0.1545,-0.1493,-0.1747,-0.184,-0.1848,-0.1805,-0.1805,-0.1775,0,0,0,-0.1033,-0.1056,-0.1027,-0.109,-0.1132,-0.1214,-0.1355,-0.1318,-0.1544,-0.1483,-0.161,-0.1631,-0.1893,-0.2072,-0.2045,-0.2043,-0.202,0,0]},{"header":{"parameterUnit":"m.s-1","parameterCategory":2,"la1":30.2992,"la2":30.254,"lo1":-89.0895,"lo2":-89.0443,"dy":0.0025,"dx":0.0025,"nx":19,"ny":19,"refTime":"2026-04-17T09:00:00:Z","depth":"4","parameterNumber":3,"parameterNumberName":"V-component_of_CURRENTS"},"data":[0,0,0,-0.0234,-0.0234,-0.0182,-0.0181,-0.002,-0.0019,0,0,0,0,0,0,0,0,0,0,0,-0.0248,-0.0248,-0.0234,-0.0234,-0.0182,-0.0181,-0.0021,-0.0019,0,0,0,0,0,0,0,0,0,0,0,-0.0248,-0.0248,-0.0248,-0.0234,-0.0182,-0.0181,-0.0021,-0.0079,0,0,0,0,0,0,0,0,0,0,-0.014,-0.0174,-0.0248,-0.0248,-0.0234,-0.0182,-0.0181,-0.0083,-0.0075,-0.0024,0,-0.0028,0,-0.0028,-0.0008,-0.0007,0,0,0,-0.0214,-0.018,-0.0169,-0.0248,-0.0233,-0.0182,-0.02,-0.0079,-0.0071,-0.0014,-0.0026,-0.002,-0.0025,-0.0007,-0.0006,0.012,0.012,0,0,-0.0217,-0.0228,-0.0176,-0.0165,-0.0233,-0.0201,-0.0198,-0.0075,-0.0067,-0.0025,-0.0017,-0.0022,-0.0006,-0.0004,0.012,0.012,0,0,0,-0.0239,-0.023,-0.0224,-0.017,-0.0173,-0.02,-0.0197,-0.0073,-0.0072,-0.0016,-0.002,-0.0005,-0.0003,0.012,0.012,0.0027,0,0,0,-0.0239,-0.0244,-0.0225,-0.0229,-0.0177,-0.0136,-0.0197,-0.0081,-0.0067,-0.0021,-0.0005,-0.0001,0.0119,0.012,0.0029,-0.0011,0,0,0,-0.0248,-0.0245,-0.0244,-0.0231,-0.0218,-0.0138,-0.013,-0.0078,-0.007,-0.0007,-0.0001,0.0119,0.012,0.0031,-0.0007,0.004,0,0,0,-0.0252,-0.0269,-0.0245,-0.0262,-0.0219,-0.0195,-0.0131,-0.0096,-0.005,-0.0004,0.0119,0.012,0.0032,-0.0004,0.0041,0.0039,0,0,0,-0.028,-0.0273,-0.0284,-0.0262,-0.0272,-0.02,-0.0181,-0.0094,-0.0021,0.0089,0.0092,0.0029,-0.0007,0.004,0.0059,0,0,0,0,-0.0297,-0.031,-0.0305,-0.0307,-0.0273,-0.0238,-0.0156,-0.0101,-0.0013,0.0004,0.0062,0.0043,0.0075,0.0079,0.0121,0.0121,0.0121,0.0121,0.0121,-0.0349,-0.0344,-0.0371,-0.0358,-0.0334,-0.0253,-0.0205,-0.0108,-0.004,-0.0011,-0.0008,-0.0005,-0.0005,0.0022,0.0021,0.0021,0.002,0.002,0.002,-0.0414,-0.0437,-0.043,-0.0456,-0.041,-0.038,-0.0252,-0.0192,-0.0079,-0.0045,-0.0009,0.0009,0.0012,0.0013,0.0014,0.0015,0.0016,0.0017,0.0017,-0.0454,-0.0468,-0.049,-0.0533,-0.0535,-0.0467,-0.0407,-0.0302,-0.0162,-0.0134,-0.0053,-0.0033,-0.0048,-0.0095,-0.0095,-0.0095,-0.0095,-0.0095,-0.0095,-0.0486,-0.051,-0.0572,-0.0612,-0.0645,-0.063,-0.0494,-0.0388,-0.0241,-0.0141,-0.014,-0.0042,-0.0038,-0.0051,-0.0094,-0.0095,-0.0095,-0.0095,-0.0095,-0.0533,-0.0551,-0.064,-0.0692,-0.0761,-0.0741,-0.0632,-0.038,-0.0257,-0.0126,-0.0108,-0.0107,-0.0056,-0.0051,-0.0063,-0.0111,-0.0111,-0.0112,0,-0.0565,-0.0581,-0.0703,-0.0791,-0.0835,-0.08,-0.0623,-0.0461,-0.0258,-0.0275,-0.0267,-0.026,-0.0254,-0.0211,-0.0205,-0.0228,0,0,0,-0.0606,-0.0636,-0.0727,-0.0815,-0.0872,-0.0699,-0.0572,-0.0471,-0.032,-0.0143,-0.0116,-0.0115,-0.013,-0.0094,-0.0012,-0.0007,-0.0022,0,0]}]]